Zurück zum Katalog

CZ-6A DEB

AktivSSO
NORAD 54427·DEBRIS·🇨🇳 China

Gestartet Nov 11, 2022 von Taiyuan Satellite Launch Center

Loading…

Nächste Überflüge (nächste 24 Stunden)

TLE

AktuellSource: Space-Track

Epoche: Sep 14, 2026, 08:53 UTC

1 54427U 22151FB  26257.37062380  .00000596  00000-0  49805-3 0  9993
2 54427  99.0536 222.9612 0173334 279.4468  78.7134 13.85584697193651

Verfolge CZ-6A DEB in Echtzeit mit AllMySat

Download on the App Store